GFSFLT2_700_spd_210.txt.gz
Wind_Speed
2 2 4 3 7 11 13 12 11 11 9 8 8 7 7 7 7 7 7 8 8 7 7 7 7 6 6 6 5 5 6 3
2 3 2 3 3 8 13 15 15 13 12 11 10 9 8 7 6 6 4 4 5 5 5 5 5 4 5 5 4 3 5 3
4 4 5 2 2 5 11 16 18 17 16 14 13 11 10 9 7 7 6 6 4 4 4 3 2 2 2 3 2 2 2 3
8 8 8 6 5 4 7 12 17 18 18 17 15 13 12 12 11 10 9 7 6 5 4 4 3 3 3 2 2 4 7 8
15 12 12 11 9 6 5 7 13 17 20 19 18 17 16 15 13 12 11 9 9 8 8 7 7 7 9 5 4 6 5 11
26 16 16 14 14 8 9 7 9 13 17 21 22 22 19 17 15 15 14 13 12 12 11 11 10 11 11 8 8 9 9 14
33 21 18 17 16 15 12 11 10 11 15 20 24 25 22 21 19 18 17 16 16 15 15 14 14 13 14 13 12 13 13 16
34 24 18 19 20 20 17 15 13 13 13 16 23 26 26 24 23 21 20 19 18 20 18 18 16 16 17 16 16 15 15 18
34 29 22 20 20 24 23 20 19 16 16 14 18 26 28 27 26 26 24 22 22 22 23 22 20 19 20 19 18 17 18 18
31 35 24 24 23 25 27 26 24 21 20 19 17 20 27 29 29 29 26 27 26 24 25 25 24 24 23 23 23 21 20 20
28 32 30 26 26 27 29 31 30 27 24 25 23 19 21 26 29 30 30 30 31 25 26 27 27 25 28 28 27 26 25 25
27 32 34 31 28 28 31 33 34 32 30 29 28 24 23 23 22 28 33 33 33 28 27 28 27 28 29 32 32 29 26 26
35 36 34 39 39 37 36 37 37 38 37 32 31 27 27 26 23 24 29 32 28 28 27 28 28 28 31 33 31 32 31 30
34 32 38 41 43 43 38 36 41 39 40 35 35 30 24 29 26 24 24 26 25 25 27 26 26 27 29 30 32 32 30 27
28 27 31 38 39 34 31 35 39 43 41 41 38 34 26 27 29 27 25 22 22 23 23 23 24 25 28 30 30 28 26 26
28 30 32 32 33 33 32 33 40 41 40 42 39 34 28 28 30 30 29 26 26 24 24 25 25 25 27 27 27 29 28 31
27 31 32 30 31 32 32 34 37 41 37 38 38 32 30 30 30 31 32 31 28 28 28 27 26 28 28 28 30 32 32 34
27 28 33 31 28 29 29 30 32 38 37 36 36 35 33 34 32 32 34 32 31 30 28 28 28 28 29 31 32 34 33 32
22 27 27 28 27 25 23 24 26 32 34 35 36 35 36 35 33 31 32 32 31 29 29 27 28 30 32 32 30 29 30 30
22 23 22 25 26 24 23 23 27 26 28 31 34 35 34 33 31 31 30 30 30 29 29 30 30 31 31 31 31 30 31 32

GFSFLT2_700_spd_216.txt.gz
Wind_Speed
3 4 5 4 8 12 13 13 13 13 13 13 12 12 12 11 10 10 10 9 9 10 9 8 7 6 6 6 8 12 8 10
3 4 3 4 2 6 11 14 14 14 14 13 13 12 12 11 9 9 9 9 8 9 8 8 7 5 4 4 5 9 11 8
3 3 4 3 3 3 6 12 15 15 15 14 13 12 12 11 10 9 9 8 8 6 6 5 6 5 3 3 1 3 6 6
4 5 2 5 3 1 3 4 10 15 15 15 14 13 13 13 12 11 10 9 8 8 7 6 6 5 4 3 3 5 4 5
3 5 6 7 8 6 3 2 2 10 16 17 17 16 15 15 14 12 11 10 10 10 9 9 9 8 7 5 5 9 5 3
6 8 9 10 9 10 9 6 2 3 9 16 19 18 18 17 16 15 14 14 14 13 12 13 12 10 9 8 8 9 10 7
8 11 12 13 13 11 13 10 8 6 5 9 15 20 21 21 19 19 18 17 16 16 16 16 15 14 13 11 12 12 11 11
15 16 16 17 16 13 13 14 13 12 11 8 9 14 20 23 24 23 22 20 20 20 19 20 18 18 16 14 13 15 12 11
21 22 21 20 20 17 16 16 17 16 16 15 13 12 15 19 24 26 25 24 24 23 23 24 22 21 19 16 15 15 16 16
25 25 25 25 24 20 19 19 20 20 21 20 20 17 15 14 18 23 26 27 27 27 26 26 25 24 20 18 18 18 18 19
29 29 25 26 26 24 21 21 22 23 24 24 25 24 21 17 15 16 22 26 28 29 29 29 28 26 22 21 20 19 19 20
27 28 25 27 25 25 23 18 17 21 24 26 28 29 27 23 20 17 19 21 23 24 27 29 29 28 27 23 22 21 21 19
21 19 18 21 20 21 20 23 25 25 24 27 30 33 32 29 25 23 21 20 18 18 20 22 22 24 27 27 24 23 22 21
28 25 24 22 21 22 28 30 32 32 31 27 29 32 33 35 30 26 25 22 20 18 18 16 18 23 25 24 24 23 23 20
28 28 27 25 23 27 30 36 37 33 29 26 24 26 32 34 35 31 27 25 22 20 20 20 21 22 22 24 25 23 21 21
32 30 28 28 28 29 32 35 33 28 28 27 28 29 28 30 35 35 31 28 25 23 22 23 23 25 25 25 25 24 23 24
36 31 31 31 30 32 35 33 29 25 24 26 30 32 30 28 31 36 34 30 28 26 26 26 26 28 28 27 28 25 26 27
34 28 29 31 31 32 32 32 32 25 21 23 26 27 29 26 29 34 36 33 31 28 29 29 29 31 31 31 30 27 27 28
30 25 27 30 31 29 31 32 30 25 21 20 20 25 27 26 24 27 34 35 30 28 31 32 33 34 34 31 33 29 29 32
22 24 29 31 29 30 31 29 27 25 20 19 20 18 24 27 28 27 32 34 31 31 32 34 34 37 38 34 31 31 32 34

GFSFLT2_700_spd_222.txt.gz
Wind_Speed
8 7 8 10 11 11 10 9 8 7 6 6 7 8 7 7 7 7 7 6 6 6 7 9 11 11 12 12 11 11 10 10
9 8 7 7 9 11 11 11 11 10 9 8 7 7 7 7 6 6 7 7 6 7 8 9 11 11 12 11 11 10 10 8
7 9 8 7 8 8 9 12 13 13 12 10 9 8 7 7 6 5 5 5 6 5 5 6 7 7 9 9 9 7 6 5
7 9 8 7 7 7 6 7 11 13 13 12 11 11 10 10 8 7 6 5 4 3 2 2 3 4 4 4 5 3 3 3
9 10 10 7 6 6 5 4 6 10 14 14 15 14 14 12 12 10 8 7 7 6 6 5 4 2 1 0 0 1 1 2
11 9 7 6 5 3 7 5 4 4 9 14 16 16 16 15 14 14 13 12 12 12 11 11 9 8 6 5 5 6 5 6
11 10 7 4 3 3 3 8 7 6 6 9 13 17 18 18 18 18 17 17 17 16 15 15 14 13 12 10 10 10 9 9
7 10 9 8 8 7 5 4 10 11 9 7 8 11 16 20 21 21 21 21 21 20 20 19 19 19 17 15 13 14 14 14
7 7 11 11 11 12 11 8 9 13 13 12 12 12 12 15 19 23 24 24 25 25 24 24 23 21 20 19 18 17 18 18
13 13 13 14 15 14 15 14 12 13 15 16 16 16 16 17 16 18 23 27 28 29 29 27 26 26 24 23 22 22 22 21
18 19 17 17 19 19 19 20 19 17 17 17 19 20 20 21 21 20 21 24 27 30 32 32 30 29 28 27 26 25 26 26
23 23 21 19 21 21 22 24 24 21 20 18 17 18 20 24 25 25 26 26 25 27 30 32 32 32 32 31 30 30 30 30
23 25 24 21 23 25 25 27 27 23 19 16 17 19 20 23 26 29 30 31 29 28 28 29 29 32 34 34 33 34 33 32
23 24 27 23 21 18 17 18 19 19 19 21 21 20 23 26 27 29 30 33 33 32 31 29 28 29 31 32 34 37 34 32
23 23 20 20 22 24 21 20 19 19 18 17 17 20 24 27 27 29 30 33 35 35 35 34 31 30 31 31 33 32 29 29
27 26 24 24 23 25 26 22 21 16 18 19 22 24 27 29 30 30 32 32 35 37 37 37 37 34 34 34 34 32 31 29
30 31 33 30 29 25 26 26 23 21 22 21 24 24 28 30 32 33 33 34 35 38 40 40 39 39 37 37 38 35 35 33
30 31 36 37 33 29 27 26 23 24 23 22 24 25 27 29 31 33 34 35 35 36 38 41 41 40 40 41 38 35 34 35
35 34 32 36 36 32 27 26 25 25 23 23 26 26 26 24 27 29 30 26 30 32 36 39 42 45 43 41 37 36 39 38
35 32 33 29 33 31 27 27 28 25 23 25 26 25 25 25 27 28 27 29 29 32 35 38 40 44 44 42 40 39 39 40

GFSFLT2_700_spd_225.txt.gz
Wind_Speed
8 9 10 10 10 10 8 7 5 4 6 7 8 9 8 9 8 7 8 8 8 9 10 10 12 13 13 13 12 11 11 10
11 9 8 8 9 11 10 9 7 5 4 5 6 6 7 7 7 7 7 8 9 9 11 13 13 12 13 13 11 10 9 8
11 12 10 9 8 10 11 11 11 9 7 6 5 5 5 5 6 6 7 8 8 8 9 11 12 12 11 10 8 7 5 5
9 13 12 10 9 8 9 10 11 11 10 8 8 8 7 6 5 5 4 6 6 6 5 5 7 8 9 8 6 5 3 1
8 13 12 11 9 8 7 6 9 11 13 12 12 12 11 10 8 7 6 5 5 5 5 4 3 3 3 4 4 3 2 2
13 13 12 11 10 9 8 6 5 7 10 14 15 15 14 13 12 11 11 10 9 9 9 8 6 6 6 5 5 5 5 6
13 14 12 10 9 8 8 9 7 6 6 9 13 15 16 16 15 16 16 15 15 14 14 13 12 12 11 10 10 10 10 10
11 14 13 12 9 8 7 7 11 10 9 8 9 11 15 18 19 19 20 19 19 19 19 19 19 18 16 14 14 13 13 14
7 12 15 14 11 10 11 10 11 13 13 12 11 11 12 14 17 20 22 22 23 24 24 24 24 23 22 21 20 19 18 19
13 13 11 12 13 12 13 16 15 14 14 17 16 15 15 15 16 16 20 24 26 27 27 27 27 27 26 26 26 24 24 24
19 19 17 16 18 17 17 18 21 20 18 17 18 20 19 19 19 20 21 23 24 27 29 30 30 30 30 30 30 30 29 30
24 26 26 24 23 23 23 24 24 25 23 22 21 20 21 22 22 24 25 27 27 27 27 29 30 32 33 34 34 33 34 33
31 29 28 29 27 25 24 24 24 25 25 23 23 21 20 20 21 23 27 29 30 30 31 31 30 31 34 34 36 36 36 36
32 28 28 27 29 26 24 23 25 25 27 26 25 23 22 23 24 25 26 29 32 33 35 35 34 33 34 34 35 35 33 34
32 28 28 26 26 28 26 25 23 25 25 26 25 25 22 21 25 27 28 29 30 32 36 38 37 37 38 37 37 35 33 32
31 29 27 25 25 25 27 27 26 19 16 16 19 21 22 24 27 30 31 33 33 32 33 36 39 41 41 40 39 37 36 36
32 30 27 27 28 27 27 27 28 27 24 22 23 25 26 28 31 34 37 37 34 35 35 35 38 41 43 42 41 41 38 39
35 33 31 30 30 30 33 30 27 29 29 25 26 26 26 27 31 34 35 35 33 33 35 36 37 38 41 43 43 42 40 40
37 34 33 30 33 33 36 36 33 29 30 27 28 26 24 24 27 28 30 31 31 31 32 32 34 39 38 42 44 43 41 39
39 38 39 37 35 32 30 37 35 32 32 31 28 26 23 25 25 26 27 28 29 29 31 33 35 36 37 41 43 44 44 42